Weather in Tyshkivka

Ukraine / Kirovohrad Region     48°53′11″N   31°43′39″E
temp.,
°C
wind,
m/s
gust,
m/s
humid.,
%
clouds,
%
prec.,
mm/h
press.,
hPa
HPBL,
m
23 april, fri
fri2300:00+9s613807 0.0 1017318
03:00+8s6138280 0.3 1016318
06:00+8ssw4118994 0.6 1016373
09:00+11sw5677100 0.9 1016719
12:00+9nw6788100 1.2 1017583
15:00+6nw5887100 3.6 1018776
18:00+8wnw2573100 0.2 1018696
21:00+5w33795 0.3 101942
24 april, sat
sat2400:00+4wsw488317 0.0 1019149
03:00+3w410884 0.1 1019223
06:00+1w39890 0.0 1019198
09:00+6wnw46615 0.0 1020667
12:00+8wnw81061100 0.4 10191547
15:00+8nw81143100 0.8 10202349
18:00+8wnw611485 0.0 10212427
21:00+4wsw34655 0.0 102268
25 april, sun
sun2500:00+2wsw36714 0.0 102390
03:00+2wsw36775 0.0 1023100
06:00+1sw367947 0.0 102292
09:00+7sw585737 0.0 1021585
12:00+11sw684791 0.0 10191985
15:00+9w5674100 0.3 10191153
18:00+7wsw3687100 3.4 1018538
21:00+6nnw3679100 4.0 1019319
26 april, mon
mon2600:00+3nw228012 0.0 102012
03:00+2wnw338081 0.0 101941
06:00+1wnw35825 0.0 101980
09:00+6wnw35570 0.0 1020635
12:00+9wnw464199 0.0 10192320
15:00+10w573999 0.0 10182291
18:00+10wsw564733 0.0 10162058
21:00+6nw126387 0.1 101713
27 april, tue
tue2700:00+4e226836 0.0 101716
03:00+5ssw3775100 0.1 1016208
06:00+4sse4696100 4.8 1014508
09:00+3e3598100 10.9 1013293
12:00+6wnw7990100 0.1 1014899
15:00+7nw467797 0.2 1015841
18:00+7nw237398 0.0 1016791
21:00+4nne118061 0.0 101710